FENGYUN 1C DEB, 30938

Orbit data source: Space-Track

FENGYUN 1C DEB, 30938 is space debris in SSO originally from a launch on Mon, 10 May 1999 UTC launched from the Taiyaun Space Center, China (TSC). Fengyun 1C debris stems from the Chinese weather satellite Fengyun-1C, which was intentionally destroyed by a Chinese anti-satellite missile in 2007. This event dramatically increased the amount of space debris, with thousands of trackable fragments posing hazards to satellites and human spaceflight. The Fengyun 1C debris cloud has become a focal point in discussions about space sustainability and the need for international regulations to prevent the creation of new debris.

Loading next visibility...
Identifier
30938, 1999-025BAC
Orbit
SSO
Country
Flag of CNCN / PRC
Related business
Manufacturer
Unknown
Mission
Spacecraft
Bus & Motor
Unknown
Mass
Unknown
Launch date (UTC)
1999-05-10 (27 years ago)
Launch vehicle
Unknown
Launch site
Taiyaun Space Center, China (TSC)
Object type
Payload
Rocket body
Debris
Shape & HBR
Unknown shape, 0.1 m
Radar Cross Section
Small (<0.1 m²)

Expand to show TLE details & history
Last TLE update: 20 hours ago

TLE from 20 hours ago
0 FENGYUN 1C DEB
1 30938U 99025BAC 26255.02893421  .00000351  00000-0  18275-3 0  9992
2 30938  98.5844 265.4673 0044630 272.3319 152.8419 14.20175257  9980
Epoch: 2026-09-12T00:41Z
TLE epoch observation values (Epoch: 2026-09-12T00:41:39.915Z)
Latitude
64.129°
Longitude
-114.03076°
Altitude
864.415 km
Speed
7.411 km/s
True Right ascension
16h 29m 43s
True Declination
63° 59' 45"
Sunlit
Object was in daylight at epoch
Visualization orbit readout
Latitude
Unknown
Longitude
Unknown
Altitude
Unknown
Speed
Unknown
Apparent Right ascension
Unknown
Apparent Declination
Unknown
Sunlit
N/A
Visualization observer readout
Local Sidereal Time
13:33:13
Azimuth
Unknown
Elevation
Unknown
Doppler factor
Unknown
Orbital elements
Apogee altitude
854.046 km
Perigee altitude
789.779 km
Semi-major axis
7,200.049 km
Eccentricity
0.00446
Inclination
98.5844°
RAAN
265.4673°
Arg. of periapsis
272.3319°
True anomaly
153.07418°
Mean anomaly
152.8419°
Eccentric anomaly
152.95816°
Mean motion
3.55255 °/min
Orbital period
101.34 mins
BSTAR
0.00018275
Loading maneuver chart data...
Computing Atmospheric mass density...

Documentation

Showing up to 5 results
|